Total_Precipitation_Accumulation
2.49 3.23 3.91 4.38 4.99 5.74 6.29 6.20 5.61 5.20 4.79 4.31 3.86 3.92 3.86 3.64 3.41 3.23 3.08 3.09 3.00 2.83 2.89 2.61 2.78 2.44 2.50 2.68 2.84 3.20 3.42 3.37 3.34 3.66 3.73 3.24 2.74 2.74 2.68 2.57 2.85 2.88 2.87
2.52 3.31 3.89 4.00 3.97 4.24 4.47 3.98 3.81 3.85 3.57 3.41 3.45 3.45 3.36 3.08 2.93 2.96 3.23 2.91 2.88 2.75 2.56 2.73 2.54 2.51 2.76 2.80 2.95 3.22 3.35 3.30 3.38 3.60 3.96 3.68 3.56 3.01 2.26 2.47 2.61 2.72 2.97
2.59 3.12 3.28 3.24 3.07 3.02 3.01 2.80 2.79 3.13 3.16 3.26 3.35 3.37 3.37 3.21 3.07 2.93 3.11 2.80 2.60 2.55 2.61 2.56 2.64 2.84 2.55 2.81 3.02 3.06 3.33 3.45 3.31 3.29 3.73 3.72 3.62 3.11 2.45 2.28 2.35 2.58 2.90
2.56 2.61 2.17 1.97 2.05 2.12 2.25 2.53 2.65 2.84 2.81 2.99 2.97 2.90 2.69 2.59 2.56 2.56 2.73 2.82 2.55 2.43 2.44 2.57 2.90 3.07 2.80 3.02 2.59 2.77 3.15 3.40 3.34 3.35 3.11 2.95 3.03 3.23 3.08 2.61 2.34 2.46 2.59
1.61 1.55 1.42 1.40 1.58 1.84 2.08 2.43 2.58 2.66 2.62 2.63 2.73 2.92 2.85 2.88 2.78 2.73 3.01 3.04 3.06 2.84 2.51 2.51 2.80 3.00 3.00 3.11 2.94 3.18 2.99 2.94 2.98 3.09 3.08 3.02 2.86 2.65 2.84 2.87 2.68 2.53 2.23
0.97 1.07 1.19 1.40 1.65 1.81 1.89 2.10 2.30 2.55 2.59 2.58 2.65 2.69 2.78 2.99 2.98 2.98 2.85 2.72 2.84 2.82 2.57 2.56 2.90 2.94 2.97 3.15 3.04 3.02 2.90 2.93 2.96 2.85 2.75 3.03 3.02 2.81 2.89 2.65 2.60 2.51 2.02
0.84 1.04 1.19 1.42 1.52 1.59 1.59 1.75 1.84 2.06 2.30 2.40 2.43 2.51 2.67 2.82 2.81 2.90 2.85 2.74 2.52 2.40 2.51 2.66 3.01 2.96 2.95 2.93 3.01 2.95 2.97 3.06 3.09 2.94 2.76 2.76 2.79 2.83 2.84 2.78 2.42 2.28 2.01
0.77 0.88 1.07 1.16 1.22 1.38 1.57 1.74 1.72 1.72 1.80 1.91 2.14 2.29 2.32 2.43 2.48 2.82 2.72 2.68 2.53 2.38 2.48 2.64 2.61 2.60 2.69 2.59 2.91 2.74 2.72 2.86 2.92 2.76 3.11 2.99 2.60 2.76 2.83 2.96 3.16 2.91 2.56
0.85 0.85 0.88 1.09 1.17 1.08 1.17 1.38 1.50 1.60 1.68 1.74 1.95 1.97 1.94 2.05 2.28 2.36 2.23 2.09 2.19 2.30 2.42 2.46 2.52 2.56 2.56 2.61 2.84 2.76 2.78 2.97 2.81 2.78 3.21 3.00 2.62 2.62 2.70 2.91 3.26 3.53 3.11
0.81 0.88 0.91 0.98 1.03 1.02 1.18 1.30 1.41 1.54 1.63 1.64 1.72 1.59 1.70 1.79 2.00 2.10 2.10 2.00 1.94 2.12 2.28 2.35 2.45 2.52 2.48 2.57 2.75 2.61 2.80 2.89 2.79 2.81 2.90 2.83 2.61 2.66 2.74 2.93 3.17 3.46 3.39
0.71 0.84 0.86 0.94 0.97 0.94 1.05 1.24 1.46 1.56 1.48 1.48 1.49 1.58 1.68 1.84 1.93 1.92 1.96 1.98 1.99 2.11 2.24 2.35 2.42 2.43 2.47 2.62 2.72 2.57 2.73 2.72 2.83 2.76 2.71 2.67 2.89 2.96 2.79 2.96 3.09 3.33 3.56
0.79 0.87 0.87 0.89 0.90 0.90 0.96 1.09 1.30 1.47 1.52 1.50 1.59 1.71 1.79 1.88 1.95 1.87 1.95 2.16 2.18 2.21 2.30 2.41 2.49 2.40 2.49 2.65 2.59 2.58 2.65 2.70 2.69 2.79 2.98 2.91 3.09 3.11 3.06 3.25 3.25 3.34 3.59
0.78 0.82 0.95 0.90 0.86 0.90 0.96 1.11 1.37 1.56 1.76 1.84 1.82 1.85 1.83 1.90 2.01 2.07 2.10 2.21 2.30 2.36 2.34 2.32 2.39 2.54 2.72 2.74 2.58 2.57 2.57 2.48 2.40 2.57 2.85 3.15 3.62 3.47 3.29 3.18 3.11 3.15 3.22
0.73 0.85 0.98 1.07 1.14 1.16 1.17 1.29 1.46 1.54 1.70 1.73 1.76 1.88 1.95 2.08 2.22 2.29 2.34 2.38 2.37 2.37 2.43 2.50 2.52 2.60 2.63 2.60 2.60 2.64 2.65 2.60 2.46 2.47 2.58 2.76 3.06 3.23 3.37 3.15 3.05 3.14 3.23
0.90 0.94 1.07 1.21 1.31 1.41 1.39 1.36 1.43 1.48 1.66 2.03 2.23 2.38 2.39 2.41 2.53 2.59 2.56 2.59 2.55 2.46 2.66 2.72 2.68 2.67 2.63 2.45 2.65 2.80 2.67 2.75 2.65 2.57 2.50 2.34 2.46 2.66 2.85 2.71 3.02 3.21 3.17
1.09 1.21 1.27 1.36 1.41 1.49 1.58 1.60 1.62 1.72 1.92 2.36 2.72 2.83 2.85 2.86 2.89 2.93 2.90 2.90 2.84 2.98 3.03 2.89 2.83 2.76 2.51 2.69 2.76 2.80 2.81 2.89 2.80 2.68 2.61 2.42 2.26 2.24 2.38 2.45 2.67 2.93 2.96
1.08 1.17 1.32 1.45 1.52 1.62 1.68 1.79 1.86 1.96 2.10 2.38 2.60 2.69 2.79 2.87 3.04 3.06 3.05 3.04 3.05 3.09 3.10 3.16 3.11 2.98 3.06 3.08 2.75 2.71 2.70 2.72 2.68 2.83 2.90 2.45 2.07 2.28 2.23 2.31 2.31 2.24 2.39
1.10 1.20 1.29 1.51 1.67 1.82 2.02 2.27 2.40 2.50 2.49 2.59 2.76 2.85 2.82 2.84 2.91 2.91 2.83 2.84 2.98 3.02 2.98 2.93 2.86 2.80 2.79 2.89 2.62 2.56 2.43 2.45 2.45 2.47 2.48 2.45 2.28 2.21 2.22 2.19 2.04 1.88 1.88
1.31 1.51 1.70 1.80 1.89 1.99 2.15 2.38 2.66 2.82 2.82 2.72 2.82 2.95 3.04 3.12 3.02 2.93 2.92 2.94 3.02 2.92 2.88 2.86 2.87 2.75 2.70 2.75 2.54 2.52 2.32 2.27 2.19 2.16 2.15 2.16 2.03 2.10 2.07 1.97 1.90 1.83 1.73
1.44 1.61 1.79 1.87 1.89 2.04 2.15 2.27 2.47 2.59 2.66 2.71 2.83 2.95 3.05 3.22 3.32 3.26 3.27 3.20 3.13 3.07 3.05 3.00 2.99 2.90 2.82 2.94 2.68 2.55 2.31 2.26 2.25 2.33 2.29 2.25 2.07 2.06 1.95 1.78 1.78 1.64 1.54
1.38 1.43 1.50 1.66 1.74 1.82 1.96 2.16 2.26 2.25 2.35 2.45 2.49 2.67 2.91 3.13 3.28 3.38 3.38 3.38 3.29 3.20 3.00 2.84 2.81 2.73 2.71 2.86 2.68 2.52 2.26 2.23 2.33 2.40 2.44 2.38 2.28 1.98 1.83 1.70 1.60 1.58 1.73
1.34 1.36 1.46 1.57 1.66 1.83 2.12 2.35 2.34 2.29 2.32 2.43 2.56 2.71 2.93 3.02 3.06 3.18 3.23 3.38 3.34 3.22 3.11 2.87 2.68 2.55 2.39 2.36 2.38 2.23 2.12 2.16 2.22 2.30 2.43 2.46 2.36 2.08 1.95 1.79 1.66 1.72 1.71
1.40 1.36 1.40 1.55 1.78 2.03 2.29 2.54 2.53 2.56 2.61 2.66 2.75 2.84 2.93 3.03 3.10 3.17 3.17 3.16 3.15 2.99 2.87 2.70 2.60 2.50 2.41 2.34 2.20 1.94 1.89 1.94 1.92 2.05 2.42 2.51 2.35 2.13 1.86 1.77 1.78 1.72 1.60
1.45 1.42 1.44 1.56 1.77 1.91 2.04 2.29 2.44 2.49 2.67 2.68 2.61 2.60 2.61 2.68 2.77 2.88 2.92 2.86 2.78 2.73 2.66 2.56 2.47 2.37 2.30 2.22 2.15 1.99 1.85 1.85 1.82 1.82 2.04 2.13 2.07 1.88 1.73 1.65 1.58 1.51 1.52
1.55 1.55 1.60 1.69 1.73 1.77 1.84 1.97 2.17 2.33 2.53 2.66 2.67 2.71 2.70 2.72 2.78 2.85 2.94 2.82 2.66 2.64 2.54 2.40 2.42 2.40 2.23 2.18 2.20 2.03 1.86 1.82 1.91 1.91 1.87 1.92 2.01 1.98 1.91 1.89 1.83 1.75 1.69
1.63 1.69 1.75 1.80 1.80 1.79 1.88 2.00 2.17 2.41 2.68 2.70 2.62 2.65 2.72 2.81 2.91 2.96 2.99 3.04 2.76 2.67 2.53 2.43 2.37 2.28 2.14 2.03 1.91 1.85 1.79 1.72 1.72 1.63 1.63 1.81 1.98 2.10 2.11 2.15 2.11 2.02 1.94